Regional Weather Roundup
Issued by NWS

Home | Current Version | Previous Version | Text Only | Print | Product List | Glossary On
Versions: 1 2 3 4 5 6 7 8 9 10 11 12 13 14 15 16 17 18 19 20 21 22 23 24 25 26 27 28 29 30 31 32 33 34 35 36 37 38 39 40 41 42 43 44 45 46 47 48 49 50
280
ASCA44 KEWX 231920
RWRMX

LATIN AMERICA AND CARIBBEAN REGIONAL WEATHER ROUNDUP
NATIONAL WEATHER SERVICE AUSTIN/SAN ANTONIO TX
200 PM CDT THU MAR 23 2017

NOTE: "FAIR" INDICATED FEW OR NO CLOUDS BELOW 12,000 FEET WITH NO
SIGNIFICANT WEATHER AND/OR OBSTRUCTIONS TO VISIBILITY.

BAJA CALIFORNIA

CITY           SKY/WX    TMP DP  RH WIND       PRES   REMARKS
LORETO         MOSUNNY   73  63  68 NE21      30.03R
LA PAZ         PTSUNNY   75  52  43 N14       30.05S
MEXICALI       SUNNY     70  32  24 W16       30.05R
S.J. DEL CABO  PTSUNNY   86  46  25 NW9       30.00S
TIJUANA        PTSUNNY   61  45  55 W12       30.19R

NORTHWESTERN MEXICO

CITY           SKY/WX    TMP DP  RH WIND       PRES   REMARKS
CULIACAN       CLOUDY    81  61  50 SW6       29.96S
DURANGO        MOSUNNY   81  14   8 S6        30.18F
GUAYMAS        MOSUNNY   75  52  43 W12       29.98F
HERMOSILLO     SUNNY     73  41  31 NW7       30.06F
CD. JUAREZ     MOSUNNY   84  32  15 SW29G40   29.74F
LOS MOCHIS     PTSUNNY   77  52  41 NW26      30.01F BLWGDUST
OBREGON        MOSUNNY   81  48  32 NW8       29.99S

NORTHEASTERN MEXICO

CITY           SKY/WX    TMP DP  RH WIND       PRES   REMARKS
CHIHUAHUA      PTSUNNY   86  19   8 S20G33    29.94F
MATAMOROS      PTSUNNY   82  64  54 SE18G30   30.07F
MONCLOVA       MOSUNNY   81  61  50 N6        29.96F
MONTERREY      PTSUNNY   79  59  50 SE14      30.00F
NUEVO LAREDO   SUNNY     84  59  42 SE22      29.98F
PIEDRAS NEGRAS MOSUNNY   79  64  61 SE17G24   29.97F
REYNOSA        PTSUNNY   81  61  50 SE23G35   30.03F
SALTILLO       MOSUNNY   82  57  42 NE7       30.10F
TORREON        PTSUNNY   88  45  22 E5        29.99F
CD. VICTORIA   MOSUNNY   82  57  42 S14G26    30.03F

WESTERN MEXICO

CITY           SKY/WX    TMP DP  RH WIND       PRES   REMARKS
AGUASCALIENTES SUNNY     81  18   9 S8        30.25F
COLIMA         PTSUNNY   77  70  78 SW6       30.06F
DEL BAJIO      SUNNY     81  28  15 E7        30.28F
GUADALAJARA    SUNNY     84  30  14 CALM      30.16F
MANZANILLO     MOSUNNY   82  66  57 S8        29.94F
MAZATLAN       PTSUNNY   81  68  65 SW7       30.01F
P. VALLARTA    SUNNY     82  66  57 SW10      29.96S
URUAPAN        SUNNY     73  55  53 S9        30.21F
ZACATECAS      SUNNY     81  27  13 SW21      30.26F

CENTRAL MEXICO

CITY           SKY/WX    TMP DP  RH WIND       PRES   REMARKS
CUERNAVACA       N/A    N/A N/A N/A MISG        N/A
MEXICO CITY    SUNNY     75   1   5 NE9       30.31F
MORELIA        SUNNY     81  37  21 SE6       30.21F
POZA RICA      PTSUNNY   84  66  54 E5        30.12F
PUEBLA         SUNNY     72  14  11 S10       30.33F
QUERETARO      SUNNY     79  30  17 SW5       30.29F
S. LUIS POTOSI SUNNY     79  25  13 E3        30.23F
TAMPICO        MOSUNNY   81  66  61 S9G21     30.07F
TOLUCA         SUNNY     70  18  13 W5        30.38F

SOUTHERN MEXICO

CITY           SKY/WX    TMP DP  RH WIND       PRES   REMARKS
ACAPULCO       SUNNY     86  68  54 S8        29.94F
B. DE HUATULCO SUNNY     88  70  55 S12       30.00F HX  92
OAXACA         SUNNY     73  32  21 CALM      30.25F
P. ESCONDIDO   SUNNY     82  73  74 S12       30.05F
VERACRUZ       MOSUNNY   82  66  57 SE14      30.05F
ZIHUATANEJO    SUNNY     88  73  62 SW6       29.96F HX  96

YUCATAN PENINSULA

CITY           SKY/WX    TMP DP  RH WIND       PRES   REMARKS
CAMPECHE       MOSUNNY   84  63  48 N16       30.03F
CANCUN         MOSUNNY   81  63  54 E10       30.12F
CHETUMAL       MOSUNNY   86  59  39 SE10      30.08F
CD. DEL CARMEN MOSUNNY   86  59  39 NE10      30.05F
COZUMEL        MOSUNNY   82  63  51 E15       30.10F
MERIDA         MOSUNNY   91  54  27 SE5       30.08F
MINATITLAN     SUNNY     81  70  69 N12       30.04F
TAPACHULA      MOSUNNY   90  70  51 SW9       29.92F HX  95
TUX. GUTIERREZ MOSUNNY   86  46  25 E3        30.01F
VILLAHERMOSA   MOSUNNY   84  68  58 E8        30.05F

CENTRAL AMERICA

CITY           SKY/WX    TMP DP  RH WIND       PRES   REMARKS
BELIZE CITY    MOSUNNY   84  64  51 NE8       30.08F
MANAGUA        PTCLDY    95  66  38 E16       29.89F HX  98

CARIBBEAN

CITY           SKY/WX    TMP DP  RH WIND       PRES   REMARKS
ARUBA          MOSUNNY   86  75  70 E20       29.83F HX  95
CURACAO        MOSUNNY   86  75  70 E13       29.86F HX  95
KINGSTON       MOSUNNY   84  70  61 S12       29.94S
NASSAU         MOSUNNY   84  52  32 N8        30.17F
SAN JUAN       LGT RAIN  75  75 100 NW6       29.95  FOG
SANTO DOMINGO  MOSUNNY   84  73  70 SE5       29.92F HX  91
ST. CROIX      MOSUNNY   84  72  65 S10       29.96
ST. KITTS      PTSUNNY   81  72  74 E16       29.94F
ST. MAARTEN    MOSUNNY   82  75  78 SE13      29.94F
ST. THOMAS     MOSUNNY   82  73  74 SE10      29.94

$$





USA.gov is the U.S. government's official web portal to all federal, state and local government web resources and services.